KF0PEC-15 Weather Reports


time (UTC)temp
C
wind
direction
speed
KPH
gust
KPH
rain 1hr
cm
rain 24hr
cm
rain mn
cm
humidity
%
barometer
mb
20260506002340 2 146 1.6 6.4 0.00 0.00 0.00 95 1019.0
20260506001410 2 120 3.2 6.4 0.00 0.00 0.00 95 1018.8
20260506000550 2 134 3.2 4.8 0.00 0.00 0.00 95 1018.5
20260505235620 2 127 3.2 6.4 0.00 0.00 0.00 95 1018.3
20260505234740 2 139 1.6 4.8 0.00 0.00 0.00 95 1018.1
20260505233915 2 152 6.4 9.7 0.00 0.00 0.00 94 1017.9
20260505233031 2 133 4.8 9.7 0.00 0.00 0.00 94 1018.0
20260505232052 2 115 3.2 6.4 0.00 0.00 0.00 94 1017.9
20260505231120 2 159 4.8 19.3 0.00 0.00 0.00 94 1017.4
20260505230220 2 151 4.8 17.7 0.00 0.00 0.00 94 1017.3
20260505225306 2 165 4.8 12.9 0.00 0.00 0.00 94 1017.1
20260505224310 2 145 4.8 14.5 0.00 0.00 0.00 94 1016.8
20260505223325 2 154 3.2 8.0 0.00 0.00 0.00 94 1017.0
20260505222350 2 156 3.2 8.0 0.00 0.00 0.00 94 1016.9
20260505221505 2 145 4.8 11.3 0.00 0.00 0.00 94 1017.2
20260505220630 2 135 3.2 6.4 0.00 0.00 0.00 94 1017.2
20260505215645 3 147 6.4 9.7 0.00 0.00 0.00 94 1017.2
20260505214845 3 156 3.2 9.7 0.00 0.00 0.00 94 1017.5
20260505214010 3 158 3.2 6.4 0.00 0.00 0.00 94 1017.5
20260505213135 2 150 3.2 8.0 0.00 0.00 0.00 94 1017.7
20260505212310 3 133 3.2 9.7 0.00 0.00 0.00 94 1017.4
20260505211412 3 150 4.8 12.9 0.00 0.00 0.00 94 1017.5
20260505210545 3 163 4.8 8.0 0.00 0.00 0.00 94 1017.6
20260505205610 3 148 3.2 9.7 0.00 0.00 0.00 94 1017.9
20260505204700 3 148 4.8 9.7 0.00 0.00 0.00 94 1017.7
20260505203725 3 135 3.2 6.4 0.00 0.00 0.00 94 1017.6
20260505202850 3 145 3.2 8.0 0.00 0.00 0.00 94 1017.7
20260505202000 3 135 4.8 9.7 0.00 0.00 0.00 94 1017.9
20260505201005 3 134 4.8 14.5 0.00 0.00 0.00 94 1018.1
20260505200200 3 161 4.8 14.5 0.00 0.00 0.00 94 1018.1
20260505195235 3 143 3.2 6.4 0.00 0.00 0.00 94 1018.2
20260505194250 3 153 3.2 6.4 0.00 0.00 0.00 94 1018.2
20260505193320 3 146 3.2 8.0 0.00 0.00 0.00 94 1018.4
20260505192505 3 159 3.2 11.3 0.00 0.00 0.00 94 1017.8
20260505191645 3 155 3.2 6.4 0.00 0.00 0.00 94 1017.9
20260505190655 3 175 4.8 9.7 0.00 0.00 0.00 94 1018.1
20260505185824 3 137 3.2 8.0 0.00 0.00 0.00 94 1018.1
20260505184852 3 116 4.8 12.9 0.00 0.00 0.00 93 1018.4
20260505184000 3 133 4.8 12.9 0.00 0.00 0.00 93 1018.5
20260505183030 3 92 4.8 11.3 0.00 0.00 0.00 93 1018.9
20260505182050 3 137 8.0 19.3 0.00 0.00 0.00 93 1019.0
20260505181210 3 130 8.0 14.5 0.00 0.00 0.00 92 1019.1
20260505180402 3 145 8.0 16.1 0.00 0.00 0.00 93 1019.0
20260505175545 3 108 4.8 8.0 0.00 0.00 0.00 92 1019.1
20260505174640 3 140 4.8 11.3 0.00 0.00 0.00 91 1019.3
20260505173640 3 211 1.6 4.8 0.00 0.00 0.00 91 1019.6
20260505172645 3 79 4.8 9.7 0.00 0.00 0.00 90 1019.7
20260505171800 3 141 4.8 11.3 0.00 0.00 0.00 90 1019.8
20260505170950 3 135 6.4 12.9 0.00 0.00 0.00 88 1019.8
20260505170052 3 158 4.8 9.7 0.00 0.00 0.00 88 1019.8
20260505165105 3 119 4.8 9.7 0.00 0.00 0.00 88 1019.6
20260505164110 3 108 4.8 8.0 0.00 0.00 0.00 87 1019.4
20260505163215 3 62 3.2 8.0 0.00 0.00 0.00 86 1019.4
20260505162340 3 32 3.2 8.0 0.00 0.00 0.00 86 1019.4
20260505161421 3 60 3.2 8.0 0.00 0.00 0.00 85 1019.4
20260505160622 3 41 3.2 12.9 0.00 0.00 0.00 85 1019.3
20260505153035 3 87 4.8 9.7 0.00 0.00 0.00 84 1019.1
20260505152105 4 36 4.8 9.7 0.00 0.00 0.00 82 1019.0
20260505151250 4 57 4.8 11.3 0.00 0.00 0.00 80 1018.6
20260505150255 5 104 3.2 6.4 0.00 0.00 0.00 80 1018.3
20260505125019 6 148 8.0 11.3 0.00 0.00 0.00 79 1016.0
20260505124049 6 147 6.4 12.9 0.00 0.00 0.00 78 1015.8
20260505123249 6 173 4.8 9.7 0.00 0.00 0.00 77 1015.7
20260505122419 6 112 4.8 9.7 0.00 0.00 0.00 77 1015.1
20260505121529 6 75 6.4 9.7 0.00 0.00 0.00 77 1015.0
20260505120719 6 33 4.8 9.7 0.00 0.00 0.00 76 1014.8
20260505115759 7 137 4.8 8.0 0.00 0.00 0.00 75 1014.5
20260505114859 7 183 4.8 9.7 0.00 0.00 0.00 74 1014.3
20260505114039 7 107 6.4 16.1 0.00 0.00 0.00 74 1014.3
20260505113049 7 157 6.4 11.3 0.00 0.00 0.00 74 1014.0
20260505112114 7 160 3.2 11.3 0.00 0.00 0.00 75 1014.0
20260505111120 7 158 4.8 11.3 0.00 0.00 0.00 76 1013.9
20260505110249 7 89 1.6 6.4 0.00 0.00 0.00 79 1014.1
20260505101900 6 136 3.2 4.8 0.00 0.00 0.00 89 1014.5
20260505100914 6 145 1.6 4.8 0.00 0.00 0.00 90 1014.6
20260505100020 6 130 1.6 3.2 0.00 0.00 0.00 90 1014.8
20260505095219 6 123 1.6 3.2 0.00 0.00 0.00 89 1014.7
20260505094324 6 115 1.6 3.2 0.00 0.00 0.00 88 1014.8
20260505093324 6 142 0.0 3.2 0.00 0.00 0.00 88 1014.2
20260505092524 7 156 1.6 3.2 0.00 0.00 0.00 87 1014.2
20260505091534 7 122 1.6 3.2 0.00 0.00 0.00 86 1014.0
20260505090719 7 133 1.6 3.2 0.00 0.00 0.00 85 1013.7
20260505085740 7 124 1.6 3.2 0.00 0.00 0.00 85 1013.8
20260505084831 7 128 1.6 3.2 0.00 0.00 0.00 84 1014.0
20260505083840 7 0.0 1.6 0.00 0.00 0.00 84 1013.9
20260505082909 7 117 1.6 3.2 0.00 0.00 0.00 83 1014.0
20260505082049 8 129 1.6 3.2 0.00 0.00 0.00 82 1014.1
20260505081109 8 122 0.0 3.2 0.00 0.00 0.00 82 1013.9
20260505080200 8 105 1.6 3.2 0.00 0.00 0.00 81 1013.9
20260505075214 8 57 1.6 3.2 0.00 0.00 0.00 81 1014.1
20260505074229 8 92 1.6 4.8 0.00 0.00 0.00 82 1014.1
20260505073348 8 123 1.6 3.2 0.00 0.00 0.00 83 1014.3
20260505072524 8 111 1.6 3.2 0.00 0.00 0.00 83 1014.4
20260505071644 8 121 1.6 3.2 0.00 0.00 0.00 83 1014.1
20260505070844 8 100 0.0 3.2 0.00 0.00 0.00 82 1014.2
20260505065934 8 97 1.6 3.2 0.00 0.00 0.00 83 1014.2
20260505065114 8 115 1.6 3.2 0.00 0.00 0.00 83 1014.1
20260505064209 8 136 0.0 3.2 0.00 0.00 0.00 83 1014.1
20260505063224 8 135 1.6 3.2 0.00 0.00 0.00 83 1014.1
20260505062354 8 146 1.6 3.2 0.05 0.00 0.00 82 1013.7
20260505061424 8 137 1.6 3.2 0.03 0.00 0.00 81 1013.7
20260505060534 9 154 0.0 3.2 0.05 0.00 0.00 79 1013.4
20260505055539 9 116 0.0 3.2 0.00 0.00 0.00 74 1013.6
20260505054539 10 134 1.6 3.2 0.00 0.00 0.00 70 1013.3
20260505053549 10 52 1.6 4.8 0.00 0.00 0.00 69 1013.2
20260505052629 10 62 1.6 8.0 0.00 0.00 0.00 68 1013.1
20260505051729 10 63 1.6 4.8 0.00 0.00 0.00 68 1012.9
20260505050809 10 40 3.2 6.4 0.00 0.00 0.00 67 1012.9
20260505041404 10 83 1.6 6.4 0.00 0.00 0.00 67 1012.2
20260505040544 10 64 1.6 4.8 0.00 0.00 0.00 66 1012.3
20260505035609 10 133 1.6 6.4 0.00 0.00 0.00 66 1012.2
20260505034609 10 95 1.6 6.4 0.00 0.00 0.00 66 1012.0
20260505033734 10 66 3.2 11.3 0.00 0.00 0.00 65 1011.8
20260505032909 10 69 1.6 4.8 0.00 0.00 0.00 65 1011.7
20260505031909 10 117 1.6 3.2 0.00 0.00 0.00 67 1011.9
20260505030949 10 68 1.6 4.8 0.00 0.00 0.00 67 1011.6
20260505030014 10 111 1.6 4.8 0.00 0.00 0.00 66 1011.1
20260505025040 10 64 0.0 3.2 0.00 0.00 0.00 66 1011.1
20260505024104 10 124 1.6 4.8 0.00 0.00 0.00 66 1011.4
20260505023209 10 138 1.6 3.2 0.00 0.00 0.00 66 1011.0
20260505022234 10 49 3.2 8.0 0.00 0.00 0.00 66 1011.1
20260505021314 11 18 3.2 9.7 0.00 0.00 0.00 66 1011.2
20260505020359 10 116 1.6 6.4 0.00 0.00 0.00 78 1012.0
20260505015532 10 142 1.6 4.8 0.00 0.00 0.00 79 1011.9
20260505014649 10 158 1.6 4.8 0.10 0.00 0.00 80 1011.5
20260505013844 10 181 1.6 8.0 0.00 0.00 0.00 75 1011.2
20260505012904 10 219 1.6 4.8 0.00 0.00 0.00 74 1011.3
20260505011929 11 194 3.2 4.8 0.08 0.00 0.00 70 1010.2
20260505011029 12 174 1.6 6.4 0.18 0.00 0.00 65 1009.7
20260505010229 13 3 1.6 4.8 0.05 0.00 0.00 51 1007.9
20260505005259 14 10 4.8 12.9 0.00 0.00 0.00 48 1006.9
20260505004454 15 1 4.8 11.3 0.00 0.00 0.00 38 1005.5
20260505003509 16 354 6.4 17.7 0.00 0.00 0.00 37 1004.5